| time (UTC) | temp F | wind direction | speed knots | gust knots | rain 1hr in | rain 24hr in | rain mn in | humidity % | barometer mb |
| 20260831032630 | 69 | 162 | 1.7 | 1.7 | 0.00 | 0.00 | 0.00 | 1 | 1016.9 |
| 20260831031626 | 70 | 174 | 1.7 | 1.7 | 0.00 | 0.00 | 0.00 | 1 | 1017.0 |
| 20260831030623 | 70 | 172 | 0.9 | 1.7 | 0.00 | 0.00 | 0.00 | 1 | 1016.8 |
| 20260831025620 | 71 | 0.0 | 0.0 | 0.00 | 0.00 | 0.00 | 1 | 1016.8 | |
| 20260831024616 | 71 | 0.0 | 0.9 | 0.00 | 0.00 | 0.00 | 1 | 1016.6 | |
| 20260831023634 | 72 | 110 | 0.9 | 1.7 | 0.00 | 0.00 | 0.00 | 1 | 1016.6 |
| 20260831022630 | 73 | 155 | 0.9 | 1.7 | 0.00 | 0.00 | 0.00 | 1 | 1016.5 |
| 20260831021630 | 74 | 148 | 0.0 | 1.7 | 0.00 | 0.00 | 0.00 | 1 | 1016.6 |
| 20260831020624 | 75 | 61 | 0.9 | 2.6 | 0.00 | 0.00 | 0.00 | 1 | 1016.6 |
| 20260831015621 | 76 | 6 | 1.7 | 1.7 | 0.00 | 0.00 | 0.00 | 1 | 1016.4 |
| 20260831014617 | 76 | 46 | 1.7 | 2.6 | 0.00 | 0.00 | 0.00 | 1 | 1016.5 |
| 20260831013634 | 76 | 71 | 2.6 | 4.3 | 0.00 | 0.00 | 0.00 | 1 | 1016.5 |
| 20260831012651 | 79 | 218 | 0.9 | 1.7 | 0.00 | 0.00 | 0.00 | 1 | 1016.4 |
| 20260831011648 | 77 | 325 | 2.6 | 2.6 | 0.00 | 0.00 | 0.00 | 1 | 1016.5 |
| 20260831010625 | 77 | 1 | 4.3 | 5.2 | 0.00 | 0.00 | 0.00 | 1 | 1016.5 |
| 20260831005621 | 79 | 0.0 | 0.0 | 0.00 | 0.00 | 0.00 | 1 | 1016.6 | |
| 20260831004618 | 78 | 350 | 0.0 | 1.7 | 0.00 | 0.00 | 0.00 | 1 | 1016.6 |
| 20260831003635 | 78 | 172 | 1.7 | 1.7 | 0.00 | 0.00 | 0.00 | 1 | 1016.7 |
| 20260831002631 | 79 | 265 | 0.0 | 1.7 | 0.00 | 0.00 | 0.00 | 1 | 1016.8 |
| 20260831001648 | 78 | 219 | 0.9 | 2.6 | 0.00 | 0.00 | 0.00 | 1 | 1016.9 |
| 20260831000625 | 77 | 225 | 1.7 | 2.6 | 0.00 | 0.00 | 0.00 | 1 | 1016.8 |
| 20260830235723 | 76 | 180 | 0.9 | 2.6 | 0.00 | 0.00 | 0.00 | 1 | 1016.9 |
| 20260830234618 | 78 | 9 | 0.9 | 1.7 | 0.00 | 0.00 | 0.00 | 1 | 1017.0 |
| 20260830233634 | 77 | 7 | 0.9 | 2.6 | 0.00 | 0.00 | 0.00 | 1 | 1017.3 |
| 20260830232632 | 77 | 227 | 1.7 | 2.6 | 0.00 | 0.00 | 0.00 | 1 | 1017.2 |
| 20260830231628 | 75 | 0.0 | 0.9 | 0.00 | 0.00 | 0.00 | 1 | 1017.3 | |
| 20260830230705 | 75 | 43 | 2.6 | 3.5 | 0.00 | 0.00 | 0.00 | 1 | 1017.3 |
| 20260830225641 | 76 | 272 | 3.5 | 4.3 | 0.00 | 0.00 | 0.00 | 1 | 1017.4 |
| 20260830224618 | 75 | 342 | 0.9 | 1.7 | 0.00 | 0.00 | 0.00 | 1 | 1017.6 |
| 20260830223635 | 75 | 185 | 3.5 | 3.5 | 0.00 | 0.00 | 0.00 | 1 | 1017.7 |
| 20260830222631 | 74 | 6 | 0.9 | 1.7 | 0.00 | 0.00 | 0.00 | 1 | 1018.1 |
| 20260830221628 | 74 | 345 | 0.9 | 1.7 | 0.00 | 0.00 | 0.00 | 1 | 1018.0 |
| 20260830220625 | 73 | 68 | 0.0 | 0.9 | 0.00 | 0.00 | 0.00 | 1 | 1018.4 |
| 20260830215622 | 73 | 110 | 2.6 | 3.5 | 0.00 | 0.00 | 0.00 | 1 | 1018.5 |
| 20260830214618 | 74 | 215 | 4.3 | 6.1 | 0.00 | 0.00 | 0.00 | 1 | 1018.7 |
| 20260830213635 | 73 | 273 | 3.5 | 7.0 | 0.00 | 0.00 | 0.00 | 1 | 1018.7 |
| 20260830212632 | 73 | 242 | 2.6 | 5.2 | 0.00 | 0.00 | 0.00 | 1 | 1018.8 |
| 20260830211629 | 72 | 275 | 2.6 | 4.3 | 0.00 | 0.00 | 0.00 | 1 | 1018.9 |
| 20260830210625 | 72 | 223 | 2.6 | 4.3 | 0.00 | 0.00 | 0.00 | 1 | 1018.9 |
| 20260830205622 | 71 | 213 | 7.0 | 7.8 | 0.00 | 0.00 | 0.00 | 1 | 1019.0 |
| 20260830204618 | 71 | 217 | 6.1 | 8.7 | 0.00 | 0.00 | 0.00 | 1 | 1018.8 |
| 20260830203635 | 71 | 232 | 1.7 | 5.2 | 0.00 | 0.00 | 0.00 | 1 | 1019.2 |
| 20260830202632 | 70 | 261 | 4.3 | 6.1 | 0.00 | 0.00 | 0.00 | 1 | 1019.2 |
| 20260830201628 | 70 | 295 | 1.7 | 5.2 | 0.00 | 0.00 | 0.00 | 1 | 1019.3 |
| 20260830200337 | 70 | 183 | 6.1 | 9.6 | 0.00 | 0.00 | 0.00 | 1 | 1019.4 |
| 20260830195354 | 69 | 214 | 3.5 | 5.2 | 0.00 | 0.00 | 0.00 | 1 | 1019.4 |
| 20260830194330 | 68 | 205 | 3.5 | 6.1 | 0.00 | 0.00 | 0.00 | 1 | 1019.7 |
| 20260830193348 | 67 | 213 | 5.2 | 7.0 | 0.00 | 0.00 | 0.00 | 1 | 1019.9 |
| 20260830192324 | 68 | 184 | 5.2 | 7.8 | 0.00 | 0.00 | 0.00 | 1 | 1019.8 |
| 20260830191321 | 67 | 194 | 6.1 | 7.8 | 0.00 | 0.00 | 0.00 | 1 | 1019.9 |
| 20260830190317 | 67 | 198 | 6.1 | 7.8 | 0.00 | 0.00 | 0.00 | 1 | 1019.8 |
| 20260830185354 | 67 | 209 | 4.3 | 7.0 | 0.00 | 0.00 | 0.00 | 1 | 1019.7 |
| 20260830184351 | 66 | 194 | 4.3 | 7.8 | 0.00 | 0.00 | 0.00 | 1 | 1020.1 |
| 20260830183327 | 65 | 208 | 4.3 | 7.0 | 0.00 | 0.00 | 0.00 | 1 | 1020.1 |
| 20260830182323 | 65 | 205 | 6.1 | 12.2 | 0.00 | 0.00 | 0.00 | 1 | 1020.0 |
| 20260830181320 | 64 | 223 | 8.7 | 14.8 | 0.00 | 0.00 | 0.00 | 1 | 1020.2 |
| 20260830180403 | 63 | 208 | 2.6 | 3.5 | 0.00 | 0.00 | 0.00 | 1 | 1020.2 |
| 20260830175333 | 64 | 204 | 8.7 | 13.0 | 0.00 | 0.00 | 0.00 | 1 | 1020.1 |
| 20260830174330 | 63 | 205 | 7.8 | 10.4 | 0.00 | 0.00 | 0.00 | 1 | 1020.2 |
| 20260830173326 | 62 | 218 | 6.1 | 9.6 | 0.00 | 0.00 | 0.00 | 1 | 1020.1 |
| 20260830172323 | 62 | 199 | 4.3 | 7.8 | 0.00 | 0.00 | 0.00 | 1 | 1020.3 |
| 20260830171319 | 61 | 194 | 7.8 | 11.3 | 0.00 | 0.00 | 0.00 | 1 | 1020.1 |
| 20260830170336 | 62 | 208 | 6.1 | 7.8 | 0.00 | 0.00 | 0.00 | 1 | 1020.2 |
| 20260830165332 | 60 | 204 | 7.0 | 13.0 | 0.00 | 0.00 | 0.00 | 1 | 1020.3 |
| 20260830164329 | 60 | 227 | 6.1 | 9.6 | 0.00 | 0.00 | 0.00 | 1 | 1020.4 |
| 20260830163326 | 60 | 193 | 5.2 | 12.2 | 0.00 | 0.00 | 0.00 | 1 | 1020.5 |
| 20260830162322 | 60 | 221 | 4.3 | 7.0 | 0.00 | 0.00 | 0.00 | 1 | 1020.5 |
| 20260830161324 | 59 | 210 | 7.0 | 9.6 | 0.00 | 0.00 | 0.00 | 1 | 1020.5 |
| 20260830160335 | 59 | 216 | 5.2 | 8.7 | 0.00 | 0.00 | 0.00 | 1 | 1020.4 |
| 20260830155332 | 59 | 204 | 4.3 | 7.8 | 0.00 | 0.00 | 0.00 | 1 | 1020.4 |
| 20260830154329 | 59 | 221 | 7.8 | 11.3 | 0.00 | 0.00 | 0.00 | 1 | 1020.2 |
| 20260830153325 | 58 | 205 | 5.2 | 8.7 | 0.00 | 0.00 | 0.00 | 1 | 1020.2 |
| 20260830152322 | 58 | 209 | 6.1 | 7.8 | 0.00 | 0.00 | 0.00 | 1 | 1020.2 |
| 20260830151318 | 58 | 209 | 8.7 | 14.8 | 0.00 | 0.00 | 0.00 | 1 | 1020.3 |
| 20260830150335 | 58 | 215 | 7.8 | 12.2 | 0.00 | 0.00 | 0.00 | 1 | 1020.2 |
| 20260830145331 | 57 | 221 | 7.0 | 9.6 | 0.00 | 0.00 | 0.00 | 1 | 1020.1 |
| 20260830144348 | 57 | 200 | 7.0 | 10.4 | 0.00 | 0.00 | 0.00 | 1 | 1020.1 |
| 20260830143325 | 57 | 230 | 4.3 | 7.0 | 0.00 | 0.00 | 0.00 | 1 | 1020.2 |
| 20260830142322 | 57 | 214 | 6.1 | 9.6 | 0.00 | 0.00 | 0.00 | 1 | 1020.1 |
| 20260830141317 | 58 | 183 | 5.2 | 8.7 | 0.00 | 0.00 | 0.00 | 1 | 1020.0 |
| 20260830140334 | 57 | 190 | 7.8 | 10.4 | 0.00 | 0.00 | 0.00 | 1 | 1020.0 |
| 20260830135331 | 56 | 212 | 6.1 | 9.6 | 0.00 | 0.00 | 0.00 | 1 | 1020.0 |
| 20260830134328 | 56 | 194 | 6.1 | 8.7 | 0.00 | 0.00 | 0.00 | 1 | 1020.0 |
| 20260830133405 | 55 | 188 | 3.5 | 5.2 | 0.00 | 0.00 | 0.00 | 1 | 1020.1 |
| 20260830132401 | 55 | 216 | 6.1 | 9.6 | 0.00 | 0.00 | 0.00 | 1 | 1020.1 |
| 20260830131319 | 56 | 211 | 4.3 | 6.1 | 0.00 | 0.00 | 0.00 | 1 | 1020.0 |
| 20260830130354 | 56 | 212 | 4.3 | 6.1 | 0.00 | 0.00 | 0.00 | 1 | 1019.8 |
| 20260830125331 | 56 | 198 | 1.7 | 3.5 | 0.00 | 0.00 | 0.00 | 1 | 1019.8 |
| 20260830124328 | 56 | 251 | 0.9 | 2.6 | 0.00 | 0.00 | 0.00 | 1 | 1019.6 |
| 20260830123324 | 56 | 224 | 5.2 | 7.8 | 0.00 | 0.00 | 0.00 | 1 | 1019.6 |
| 20260830122321 | 56 | 228 | 3.5 | 5.2 | 0.00 | 0.00 | 0.00 | 1 | 1019.8 |
| 20260830121317 | 56 | 216 | 0.9 | 1.7 | 0.00 | 0.00 | 0.00 | 1 | 1019.7 |
| 20260830120334 | 56 | 233 | 0.9 | 2.6 | 0.00 | 0.00 | 0.00 | 1 | 1019.7 |
| 20260830115331 | 56 | 247 | 2.6 | 3.5 | 0.00 | 0.00 | 0.00 | 1 | 1019.8 |
| 20260830114347 | 56 | 232 | 1.7 | 2.6 | 0.00 | 0.00 | 0.00 | 1 | 1019.8 |
| 20260830113404 | 57 | 240 | 1.7 | 3.5 | 0.00 | 0.00 | 0.00 | 1 | 1019.7 |
| 20260830112320 | 57 | 198 | 3.5 | 5.2 | 0.00 | 0.00 | 0.00 | 1 | 1019.5 |
| 20260830111316 | 55 | 0.0 | 0.9 | 0.00 | 0.00 | 0.00 | 1 | 1019.5 | |
| 20260830110319 | 57 | 281 | 1.7 | 2.6 | 0.00 | 0.00 | 0.00 | 1 | 1019.5 |
| 20260830105316 | 58 | 244 | 1.7 | 2.6 | 0.00 | 0.00 | 0.00 | 1 | 1019.6 |
| 20260830104353 | 58 | 255 | 2.6 | 3.5 | 0.00 | 0.00 | 0.00 | 1 | 1019.5 |
| 20260830103329 | 59 | 276 | 0.9 | 3.5 | 0.00 | 0.00 | 0.00 | 1 | 1019.6 |
| 20260830102326 | 59 | 229 | 2.6 | 3.5 | 0.00 | 0.00 | 0.00 | 1 | 1019.4 |
| 20260830101343 | 59 | 209 | 2.6 | 4.3 | 0.00 | 0.00 | 0.00 | 1 | 1019.4 |
| 20260830100320 | 58 | 223 | 2.6 | 2.6 | 0.00 | 0.00 | 0.00 | 1 | 1019.3 |
| 20260830095316 | 58 | 216 | 3.5 | 5.2 | 0.00 | 0.00 | 0.00 | 1 | 1019.2 |
| 20260830094333 | 58 | 247 | 0.9 | 1.7 | 0.00 | 0.00 | 0.00 | 1 | 1019.2 |
| 20260830093330 | 59 | 215 | 3.5 | 5.2 | 0.00 | 0.00 | 0.00 | 1 | 1019.1 |
| 20260830092326 | 59 | 208 | 4.3 | 5.2 | 0.00 | 0.00 | 0.00 | 1 | 1019.0 |
| 20260830091343 | 59 | 243 | 1.7 | 3.5 | 0.00 | 0.00 | 0.00 | 1 | 1019.1 |
| 20260830090319 | 59 | 215 | 3.5 | 4.3 | 0.00 | 0.00 | 0.00 | 1 | 1019.1 |
| 20260830085316 | 60 | 231 | 2.6 | 5.2 | 0.00 | 0.00 | 0.00 | 1 | 1018.8 |
| 20260830084333 | 59 | 241 | 1.7 | 3.5 | 0.00 | 0.00 | 0.00 | 1 | 1019.0 |
| 20260830083334 | 59 | 231 | 1.7 | 4.3 | 0.00 | 0.00 | 0.00 | 1 | 1019.1 |
| 20260830082326 | 59 | 245 | 2.6 | 4.3 | 0.00 | 0.00 | 0.00 | 1 | 1019.1 |
| 20260830081322 | 59 | 240 | 3.5 | 5.2 | 0.00 | 0.00 | 0.00 | 1 | 1019.2 |
| 20260830080319 | 58 | 270 | 4.3 | 7.8 | 0.00 | 0.00 | 0.00 | 1 | 1019.0 |
| 20260830075356 | 57 | 239 | 3.5 | 5.2 | 0.00 | 0.00 | 0.00 | 1 | 1019.0 |
| 20260830074333 | 56 | 286 | 1.7 | 2.6 | 0.00 | 0.00 | 0.00 | 1 | 1018.9 |
| 20260830073329 | 56 | 0.0 | 0.0 | 0.00 | 0.00 | 0.00 | 1 | 1018.9 | |
| 20260830072326 | 57 | 231 | 0.9 | 0.9 | 0.00 | 0.00 | 0.00 | 1 | 1018.8 |
| 20260830071323 | 59 | 226 | 1.7 | 3.5 | 0.00 | 0.00 | 0.00 | 1 | 1018.7 |
| 20260830070319 | 59 | 267 | 1.7 | 1.7 | 0.00 | 0.00 | 0.00 | 1 | 1018.7 |
| 20260830065335 | 59 | 268 | 0.9 | 2.6 | 0.00 | 0.00 | 0.00 | 1 | 1018.8 |
| 20260830064332 | 60 | 286 | 2.6 | 4.3 | 0.00 | 0.00 | 0.00 | 1 | 1018.8 |
| 20260830063329 | 60 | 252 | 1.7 | 3.5 | 0.00 | 0.00 | 0.00 | 1 | 1018.5 |
| 20260830062326 | 60 | 260 | 2.6 | 3.5 | 0.00 | 0.00 | 0.00 | 1 | 1018.7 |
| 20260830061323 | 60 | 269 | 1.7 | 3.5 | 0.00 | 0.00 | 0.00 | 1 | 1018.4 |
| 20260830060320 | 61 | 265 | 2.6 | 4.3 | 0.00 | 0.00 | 0.00 | 1 | 1018.6 |
| 20260830055341 | 61 | 288 | 4.3 | 5.2 | 0.00 | 0.00 | 0.00 | 1 | 1018.7 |
| 20260830054333 | 60 | 327 | 2.6 | 3.5 | 0.00 | 0.00 | 0.00 | 1 | 1018.7 |
| 20260830053330 | 61 | 298 | 3.5 | 3.5 | 0.00 | 0.00 | 0.00 | 1 | 1018.8 |
| 20260830052347 | 61 | 302 | 3.5 | 4.3 | 0.00 | 0.00 | 0.00 | 1 | 1018.7 |
| 20260830051323 | 62 | 282 | 1.7 | 3.5 | 0.00 | 0.00 | 0.00 | 1 | 1018.8 |
| 20260830050340 | 60 | 260 | 2.6 | 3.5 | 0.00 | 0.00 | 0.00 | 1 | 1018.9 |
| 20260830045317 | 60 | 254 | 1.7 | 2.6 | 0.00 | 0.00 | 0.00 | 1 | 1018.7 |
| 20260830044334 | 62 | 230 | 0.9 | 1.7 | 0.00 | 0.00 | 0.00 | 1 | 1018.6 |
| 20260830043331 | 62 | 203 | 1.7 | 1.7 | 0.00 | 0.00 | 0.00 | 1 | 1018.6 |
| 20260830042349 | 63 | 1 | 1.7 | 2.6 | 0.00 | 0.00 | 0.00 | 1 | 1018.6 |
| 20260830041344 | 63 | 334 | 3.5 | 3.5 | 0.00 | 0.00 | 0.00 | 1 | 1018.5 |
| 20260830040341 | 63 | 42 | 1.7 | 1.7 | 0.00 | 0.00 | 0.00 | 1 | 1018.2 |
| 20260830035317 | 64 | 0.0 | 0.0 | 0.00 | 0.00 | 0.00 | 1 | 1018.2 | |
| 20260830034335 | 64 | 0.0 | 1.7 | 0.00 | 0.00 | 0.00 | 1 | 1018.0 | |
| 20260830033331 | 65 | 333 | 2.6 | 2.6 | 0.00 | 0.00 | 0.00 | 1 | 1018.0 |